FW6365 Weather Reports


Display with metric or nautical units.
time (UTC)temp
F
wind
direction
speed
MPH
gust
MPH
rain 1hr
in
rain 24hr
in
rain mn
in
humidity
%
barometer
mb
20260905161025 0 0.0 0.0 0.00 0.17 0.00 1018.5
20260905160524 0 0.0 0.0 0.00 0.17 0.00 1018.5
20260905160051 0 0.0 0.0 0.00 0.17 0.00 1018.4
20260905155524 0 0.0 0.0 0.00 0.17 0.00 1018.5
20260905155023 0 0.0 0.0 0.00 0.17 0.00 1018.5
20260905154547 0 0.0 0.0 0.00 0.17 0.00 1018.6
20260905154024 0 0.0 0.0 0.00 0.17 0.00 1018.6
20260905153524 0 0.0 0.0 0.00 0.17 0.00 1018.5
20260905153048 0 0.0 0.0 0.00 0.17 0.00 1018.5
20260905152526 0 0.0 0.0 0.00 0.17 0.00 1018.4
20260905152026 0 0.0 0.0 0.00 0.17 0.00 1018.2
20260905151602 0 0.0 0.0 0.00 0.17 0.00 1018.2
20260905151029 0 0.0 0.0 0.00 0.17 0.00 1018.1
20260905150528 0 0.0 0.0 0.00 0.17 0.00 1018.2
20260905150052 0 0.0 0.0 0.00 0.17 0.00 1018.3
20260905145525 0 0.0 0.0 0.00 0.17 0.00 1018.3
20260905145024 0 0.0 0.0 0.00 0.17 0.00 1018.1
20260905144549 0 0.0 0.0 0.00 0.17 0.00 1018.3
20260905144030 0 0.0 0.0 0.00 0.17 0.00 1018.3
20260905143524 0 0.0 0.0 0.00 0.17 0.00 1018.3
20260905143048 0 0.0 0.0 0.00 0.17 0.00 1018.2
20260905142526 0 0.0 0.0 0.00 0.17 0.00 1018.3
20260905142026 0 0.0 0.0 0.00 0.17 0.00 1018.2
20260905141557 0 0.0 0.0 0.00 0.17 0.00 1018.3
20260905141026 0 0.0 0.0 0.00 0.17 0.00 1018.2
20260905140524 0 0.0 0.0 0.00 0.17 0.00 1018.2
20260905140048 0 0.0 0.0 0.00 0.17 0.00 1018.2
20260905135524 0 0.0 0.0 0.00 0.17 0.00 1018.1
20260905135023 0 0.0 0.0 0.00 0.17 0.00 1018.0
20260905134549 0 0.0 0.0 0.00 0.17 0.00 1017.9
20260905134025 0 0.0 0.0 0.00 0.17 0.00 1018.0
20260905133527 0 0.0 0.0 0.00 0.17 0.00 98 1018.0
20260905133049 0 0.0 1.0 0.00 0.17 0.00 98 1018.0
20260905132523 46 0 0.0 1.0 0.00 0.17 0.00 98 1017.9
20260905132024 46 121 0.0 1.0 0.00 0.17 0.00 98 1018.0
20260905131551 46 122 0.0 1.0 0.00 0.17 0.00 98 1017.8
20260905131025 46 0 0.0 1.0 0.00 0.17 0.00 98 1017.8
20260905130526 46 0 0.0 1.0 0.00 0.17 0.00 98 1017.8
20260905130057 46 121 0.0 1.0 0.00 0.17 0.00 98 1017.8
20260905125528 46 0 0.0 1.0 0.00 0.17 0.00 98 1017.8
20260905125026 46 122 0.0 0.0 0.00 0.17 0.00 98 1017.7
20260905124552 46 0 0.0 0.0 0.00 0.17 0.00 98 1017.8
20260905124027 46 0 0.0 0.0 0.00 0.17 0.00 98 1017.8
20260905123524 46 0 0.0 0.0 0.00 0.17 0.00 98 1017.8
20260905123049 46 0 0.0 1.0 0.00 0.17 0.00 98 1017.8
20260905122528 46 0 0.0 1.0 0.00 0.17 0.00 98 1017.9
20260905122024 45 0 0.0 0.0 0.00 0.17 0.00 98 1017.8
20260905121558 45 0 0.0 0.0 0.00 0.17 0.00 98 1017.8
20260905121027 45 0 0.0 0.0 0.00 0.17 0.00 98 1017.8
20260905120527 45 0 0.0 0.0 0.00 0.17 0.00 98 1017.8
20260905120052 45 0 0.0 0.0 0.00 0.17 0.00 98 1017.7
20260905115528 45 0 0.0 0.0 0.00 0.17 0.00 98 1017.8
20260905115027 45 0 0.0 1.0 0.00 0.17 0.00 98 1017.7
20260905114553 45 0 0.0 1.0 0.00 0.17 0.00 98 1017.7
20260905114024 45 0 0.0 0.0 0.00 0.17 0.00 98 1017.8
20260905113527 45 0 0.0 0.0 0.00 0.17 0.00 98 1017.6
20260905113047 45 0 0.0 0.0 0.00 0.17 0.00 98 1017.6
20260905112527 46 0 0.0 0.0 0.00 0.17 0.00 98 1017.7
20260905112033 46 0 0.0 0.0 0.00 0.17 0.00 98 1017.7
20260905111554 45 0 0.0 1.0 0.00 0.17 0.00 98 1017.7
20260905111027 46 0 0.0 1.0 0.00 0.17 0.00 98 1017.7
20260905110527 46 0 0.0 0.0 0.00 0.17 0.00 98 1017.7
20260905110057 46 0 0.0 1.0 0.00 0.17 0.00 97 1017.7
20260905105528 46 0 0.0 1.0 0.00 0.17 0.00 98 1017.7
20260905105027 46 122 0.0 1.0 0.00 0.17 0.00 98 1017.6
20260905104609 46 0 0.0 1.0 0.00 0.17 0.00 98 1017.6
20260905104028 46 0 0.0 1.0 0.00 0.17 0.00 98 1017.5
20260905103528 46 0 0.0 1.0 0.00 0.17 0.00 98 1017.4
20260905103049 46 0 0.0 1.0 0.00 0.17 0.00 97 1017.4
20260905102529 46 122 0.0 1.0 0.00 0.17 0.00 97 1017.4
20260905102027 46 122 1.0 1.0 0.00 0.17 0.00 97 1017.3
20260905101600 46 0 0.0 1.0 0.00 0.17 0.00 98 1017.3
20260905101031 46 0 0.0 0.0 0.00 0.17 0.00 97 1017.3
20260905100529 46 0 0.0 0.0 0.00 0.17 0.00 98 1017.3
20260905100051 46 0 0.0 0.0 0.00 0.17 0.00 97 1017.3
20260905095524 46 0 0.0 0.0 0.00 0.17 0.00 97 1017.4
20260905095028 47 0 0.0 0.0 0.00 0.17 0.00 98 1017.3
20260905094549 47 0 0.0 0.0 0.00 0.17 0.00 98 1017.4
20260905094023 47 0 0.0 0.0 0.00 0.17 0.00 97 1017.4
20260905093528 47 0 0.0 0.0 0.00 0.17 0.00 98 1017.4
20260905093045 47 0 0.0 1.0 0.00 0.17 0.00 97 1017.3
20260905092528 47 0 0.0 1.0 0.00 0.17 0.00 98 1017.4
20260905092026 47 0 0.0 1.0 0.00 0.17 0.00 98 1017.2
20260905091608 47 0 0.0 1.0 0.00 0.17 0.00 97 1017.2
20260905091022 47 0 0.0 1.0 0.00 0.17 0.00 97 1017.2
20260905090527 47 0 0.0 1.0 0.00 0.17 0.00 97 1017.1
20260905090048 47 142 0.0 1.0 0.00 0.17 0.00 97 1017.2
20260905085523 47 0 0.0 0.0 0.00 0.17 0.00 97 1017.2
20260905085024 48 0 0.0 1.0 0.00 0.17 0.00 97 1017.1
20260905084607 47 0 0.0 3.0 0.00 0.17 0.00 97 1017.2
20260905084028 48 0 0.0 3.0 0.00 0.17 0.00 97 1017.1
20260905083522 48 173 2.0 3.0 0.00 0.17 0.00 97 1017.2
20260905083043 48 159 0.0 1.0 0.00 0.17 0.00 97 1017.0
20260905082524 48 0 0.0 0.0 0.00 0.17 0.00 97 1017.0
20260905082026 48 0 0.0 0.0 0.00 0.17 0.00 97 1017.0
20260905081550 49 0 0.0 0.0 0.00 0.17 0.00 97 1017.0
20260905081024 49 0 0.0 0.0 0.00 0.17 0.00 97 1016.9
20260905080527 49 0 0.0 0.0 0.00 0.17 0.00 97 1016.9
20260905080049 49 0 0.0 1.0 0.00 0.17 0.00 97 1017.0
20260905075524 49 0 0.0 1.0 0.00 0.17 0.00 97 1016.7
20260905075025 49 159 0.0 1.0 0.00 0.17 0.00 98 1016.8
20260905074551 49 0 0.0 0.0 0.00 0.17 0.00 97 1016.8
20260905074024 49 0 0.0 0.0 0.00 0.17 0.00 97 1016.8
20260905073524 49 0 0.0 0.0 0.00 0.17 0.00 97 1016.8
20260905073042 49 0 0.0 0.0 0.00 0.17 0.00 97 1016.7
20260905072524 49 0 0.0 0.0 0.00 0.17 0.00 97 1016.6
20260905072025 49 0 0.0 0.0 0.00 0.17 0.00 97 1016.6
20260905071552 49 0 0.0 0.0 0.00 0.17 0.00 97 1016.6
20260905071025 50 0 0.0 0.0 0.00 0.17 0.00 97 1016.7
20260905070524 50 0 0.0 0.0 0.00 0.17 0.00 97 1016.6
20260905070106 50 0 0.0 0.0 0.00 0.17 0.00 97 1016.6
20260905065529 50 0 0.0 0.0 0.00 0.17 0.17 97 1016.6
20260905065026 50 0 0.0 0.0 0.00 0.17 0.17 97 1016.5
20260905064549 51 0 0.0 0.0 0.00 0.17 0.17 97 1016.5
20260905064026 51 0 0.0 0.0 0.00 0.17 0.17 97 1016.3
20260905063527 51 0 0.0 0.0 0.00 0.17 0.17 97 1016.4
20260905063051 51 0 0.0 0.0 0.00 0.17 0.17 97 1016.3
20260905062527 51 0 0.0 1.0 0.00 0.17 0.17 97 1016.3
20260905062024 51 0 0.0 1.0 0.00 0.17 0.17 97 1016.2
20260905061604 51 159 0.0 1.0 0.00 0.17 0.17 96 1016.2
20260905061024 51 0 0.0 0.0 0.00 0.17 0.17 97 1016.1
20260905060524 52 0 0.0 0.0 0.00 0.17 0.17 97 1016.2
20260905060049 52 0 0.0 0.0 0.00 0.17 0.17 97 1016.1
20260905055526 52 0 0.0 0.0 0.00 0.17 0.17 96 1016.2
20260905055024 52 0 0.0 0.0 0.00 0.17 0.17 96 1016.2
20260905054551 53 159 0.0 0.0 0.00 0.17 0.17 97 1016.1
20260905054029 53 0 0.0 0.0 0.00 0.17 0.17 97 1016.1
20260905053526 53 0 0.0 1.0 0.00 0.17 0.17 97 1016.1
20260905053052 53 0 0.0 1.0 0.00 0.17 0.17 96 1016.2
20260905052529 53 159 1.0 1.0 0.00 0.17 0.17 96 1016.1
20260905052026 53 0 0.0 0.0 0.00 0.17 0.17 96 1016.2
20260905051550 53 0 0.0 0.0 0.01 0.17 0.17 96 1016.1
20260905051024 53 175 0.0 0.0 0.01 0.17 0.17 96 1016.0
20260905050524 54 175 0.0 0.0 0.01 0.17 0.17 96 1016.1
20260905050049 54 0 0.0 1.0 0.01 0.17 0.17 96 1016.1
20260905045523 54 175 0.0 1.0 0.01 0.17 0.17 96 1016.2
20260905045027 54 178 0.0 1.0 0.01 0.17 0.17 96 1016.1
20260905044544 54 177 0.0 1.0 0.01 0.17 0.17 95 1016.0
20260905044026 55 170 0.0 0.0 0.01 0.17 0.17 96 1016.0
20260905043527 55 0 0.0 0.0 0.01 0.17 0.17 96 1015.9
20260905043051 55 0 0.0 0.0 0.01 0.17 0.17 95 1016.0
20260905042524 55 0 0.0 0.0 0.01 0.17 0.17 96 1015.9
20260905042024 55 171 0.0 0.0 0.01 0.17 0.17 95 1015.9
20260905041555 56 0 0.0 1.0 0.00 0.16 0.16 95 1015.9
20260905041025 56 171 0.0 1.0 0.00 0.16 0.16 95 1016.0
20260905040524 56 169 0.0 1.0 0.01 0.16 0.16 95 1015.9
20260905040054 56 162 1.0 2.0 0.03 0.16 0.16 95 1015.9
20260905035524 56 162 1.0 2.0 0.04 0.16 0.16 94 1015.9
20260905035027 57 162 1.0 2.0 0.05 0.16 0.16 94 1015.9
20260905034556 57 141 0.0 1.0 0.05 0.16 0.16 95 1015.8
20260905034026 57 0 0.0 2.0 0.05 0.16 0.16 94 1015.7
20260905033529 57 335 1.0 2.0 0.06 0.16 0.16 94 1015.7
20260905033056 57 346 0.0 2.0 0.06 0.16 0.16 94 1015.8
20260905032525 57 338 0.0 2.0 0.07 0.16 0.16 94 1015.8
20260905032024 57 40 0.0 4.0 0.10 0.16 0.16 94 1015.8
20260905031550 57 313 0.0 4.0 0.11 0.16 0.16 93 1015.7
20260905031025 57 33 2.0 6.0 0.11 0.16 0.16 93 1015.7
20260905030525 58 28 2.0 7.0 0.14 0.15 0.15 93 1015.6
20260905030049 58 322 3.0 7.0 0.13 0.13 0.13 92 1015.5
20260905025528 58 42 2.0 5.0 0.12 0.12 0.12 92 1015.6
20260905025027 58 257 1.0 4.0 0.11 0.11 0.11 91 1015.8
20260905024551 58 259 1.0 3.0 0.11 0.11 0.11 90 1015.8
20260905024027 59 0 0.0 10.0 0.11 0.11 0.11 89 1015.7
20260905023524 59 111 2.0 10.0 0.10 0.10 0.10 88 1015.8
20260905023049 60 116 4.0 10.0 0.10 0.10 0.10 86 1015.7
20260905022530 60 104 1.0 12.0 0.09 0.09 0.09 83 1015.7
20260905022025 61 76 3.0 12.0 0.05 0.05 0.05 80 1015.5
20260905021549 62 304 2.0 10.0 0.05 0.05 0.05 77 1015.5
20260905021027 64 111 4.0 10.0 0.05 0.05 0.05 74 1015.4
20260905020527 66 108 4.0 13.0 0.01 0.01 0.01 68 1015.2
20260905020051 67 71 4.0 13.0 0.00 0.00 0.00 62 1014.7
20260905015526 68 84 1.0 6.0 0.00 0.00 0.00 63 1014.6
20260905015028 68 56 3.0 7.0 0.00 0.00 0.00 61 1014.4
20260905014551 69 5 4.0 7.0 0.00 0.00 0.00 61 1014.3
20260905014024 69 335 2.0 5.0 0.00 0.00 0.00 60 1014.3
20260905013527 69 13 2.0 8.0 0.00 0.00 0.00 60 1014.3
20260905013049 69 345 3.0 8.0 0.00 0.00 0.00 60 1014.2
20260905012524 69 13 2.0 5.0 0.00 0.00 0.00 61 1014.1
20260905012023 70 318 2.0 5.0 0.00 0.00 0.00 59 1014.0
20260905011548 71 24 2.0 4.0 0.00 0.00 0.00 59 1014.0
20260905011024 71 343 1.0 4.0 0.00 0.00 0.00 58 1014.0
20260905010523 70 345 2.0 5.0 0.00 0.00 0.00 59 1014.0
20260905010057 70 24 2.0 7.0 0.00 0.00 0.00 58 1014.0
20260905005528 70 16 2.0 10.0 0.00 0.00 0.00 59 1013.9
20260905005026 70 338 4.0 10.0 0.00 0.00 0.00 59 1013.9
20260905004553 69 342 2.0 4.0 0.00 0.00 0.00 59 1013.9
20260905004030 69 22 1.0 4.0 0.00 0.00 0.00 60 1013.9
20260905003527 70 49 1.0 10.0 0.00 0.00 0.00 58 1013.9
20260905003048 70 350 5.0 11.0 0.00 0.00 0.00 58 1013.8
20260905002528 70 343 5.0 11.0 0.00 0.00 0.00 57 1013.7
20260905002027 70 23 4.0 11.0 0.00 0.00 0.00 57 1013.8
20260905001546 71 350 2.0 9.0 0.00 0.00 0.00 59 1013.7
20260905001026 71 348 3.0 9.0 0.00 0.00 0.00 59 1013.7
20260905000526 70 303 1.0 8.0 0.00 0.00 0.00 58 1013.7
20260905000051 70 337 3.0 8.0 0.00 0.00 0.00 60 1013.6
20260904235527 70 319 3.0 8.0 0.00 0.00 0.00 58 1013.6
20260904235022 70 31 3.0 8.0 0.00 0.00 0.00 58 1013.6
20260904234552 70 331 2.0 8.0 0.00 0.00 0.00 60 1013.6
20260904234024 69 34 3.0 8.0 0.00 0.00 0.00 58 1013.6
20260904233524 70 16 2.0 10.0 0.00 0.00 0.00 60 1013.7
20260904233047 69 341 4.0 10.0 0.00 0.00 0.00 59 1013.6
20260904232528 69 326 6.0 10.0 0.00 0.00 0.00 58 1013.7
20260904232031 70 46 4.0 13.0 0.00 0.00 0.00 59 1013.7
20260904231549 69 84 5.0 13.0 0.00 0.00 0.00 59 1013.7
20260904231027 70 23 3.0 10.0 0.00 0.00 0.00 59 1013.6
20260904230526 70 68 3.0 10.0 0.00 0.00 0.00 56 1013.7
20260904225523 70 90 2.0 7.0 0.00 0.01 0.00 60 1013.8
20260904225025 69 88 3.0 7.0 0.00 0.01 0.00 60 1013.7
20260904224606 68 336 2.0 5.0 0.00 0.01 0.00 63 1013.6
20260904224026 68 5 1.0 4.0 0.00 0.01 0.00 60 1013.7
20260904223523 67 78 2.0 6.0 0.00 0.01 0.00 62 1013.8
20260904223048 67 106 3.0 6.0 0.00 0.01 0.00 62 1013.7
20260904222523 67 100 3.0 7.0 0.00 0.01 0.00 63 1013.6
20260904222025 67 126 3.0 7.0 0.00 0.01 0.00 63 1013.7
20260904221547 67 115 4.0 7.0 0.00 0.01 0.00 62 1013.7
20260904221027 67 105 1.0 6.0 0.00 0.01 0.00 63 1013.6
20260904220527 67 99 1.0 6.0 0.00 0.01 0.00 62 1013.7
20260904220058 68 55 1.0 6.0 0.00 0.01 0.00 62 1013.7
20260904215528 68 90 2.0 11.0 0.00 0.02 0.00 62 1013.7
20260904215023 68 72 6.0 11.0 0.00 0.02 0.00 61 1013.7
20260904214554 69 73 4.0 10.0 0.00 0.02 0.00 60 1013.7
20260904214026 70 150 2.0 6.0 0.00 0.02 0.00 59 1013.6
20260904213527 69 196 1.0 6.0 0.00 0.02 0.00 61 1013.5
20260904213048 68 332 2.0 7.0 0.00 0.02 0.00 63 1013.5
20260904212527 68 300 3.0 7.0 0.00 0.02 0.00 63 1013.5
20260904212027 68 288 3.0 7.0 0.00 0.02 0.00 61 1013.6
20260904211559 68 0 0.0 4.0 0.00 0.02 0.00 61 1013.7
20260904211026 67 302 2.0 5.0 0.00 0.02 0.00 64 1013.7
20260904210527 68 319 1.0 5.0 0.00 0.02 0.00 62 1013.6
20260904210058 68 16 1.0 8.0 0.00 0.02 0.00 61 1013.8
20260904205525 68 63 1.0 8.0 0.00 0.07 0.00 64 1013.7
20260904205024 67 321 3.0 8.0 0.00 0.07 0.00 62 1013.7
20260904204548 67 311 3.0 8.0 0.00 0.07 0.00 61 1013.7
20260904204031 67 251 1.0 5.0 0.00 0.07 0.00 63 1013.7
20260904203527 67 275 2.0 6.0 0.00 0.07 0.00 62 1013.7
20260904203050 67 50 1.0 6.0 0.00 0.07 0.00 62 1013.7
20260904202527 67 325 3.0 6.0 0.00 0.07 0.00 62 1013.7
20260904202025 67 113 3.0 5.0 0.00 0.07 0.00 62 1013.7
20260904201552 67 345 2.0 5.0 0.00 0.07 0.00 62 1013.7
20260904201024 67 28 0.0 8.0 0.00 0.07 0.00 64 1013.7
20260904200527 67 215 2.0 8.0 0.00 0.07 0.00 64 1013.8
20260904200047 66 101 4.0 8.0 0.00 0.07 0.00 63 1013.7
20260904195529 66 95 3.0 10.0 0.00 0.07 0.00 63 1013.6
20260904195024 66 184 2.0 10.0 0.00 0.07 0.00 63 1013.7
20260904194544 67 167 3.0 9.0 0.00 0.07 0.00 64 1013.6
20260904194023 67 159 6.0 9.0 0.00 0.07 0.00 63 1013.8
20260904193528 67 138 4.0 9.0 0.00 0.07 0.00 64 1013.8
20260904193052 67 116 1.0 7.0 0.00 0.07 0.00 66 1013.8
20260904192525 66 90 2.0 7.0 0.00 0.07 0.00 65 1013.8
20260904192024 66 306 3.0 9.0 0.00 0.07 0.00 64 1013.9
20260904191547 66 160 3.0 9.0 0.00 0.07 0.00 64 1013.8
20260904191024 66 111 2.0 7.0 0.00 0.07 0.00 68 1013.9
20260904190523 66 312 4.0 6.0 0.00 0.07 0.00 67 1014.0
20260904190048 66 340 1.0 9.0 0.00 0.07 0.00 69 1014.1
20260904185525 66 110 2.0 9.0 0.00 0.07 0.00 69 1014.1
20260904185023 66 10 3.0 11.0 0.00 0.07 0.00 70 1014.0
20260904184558 65 323 7.0 11.0 0.00 0.07 0.00 71 1014.1
20260904184026 65 21 3.0 8.0 0.00 0.07 0.00 73 1014.0
20260904183529 64 325 2.0 9.0 0.00 0.07 0.00 75 1014.1
20260904183050 64 61 3.0 11.0 0.00 0.07 0.00 81 1014.1
20260904182528 63 89 5.0 11.0 0.00 0.07 0.00 81 1014.1
20260904182028 62 208 3.0 5.0 0.00 0.07 0.00 86 1014.0
20260904181549 61 309 3.0 4.0 0.00 0.07 0.00 87 1013.9
20260904181026 60 244 2.0 4.0 0.00 0.07 0.00 89 1013.9
20260904180527 60 328 2.0 4.0 0.00 0.07 0.00 89 1014.0
20260904180054 60 273 1.0 4.0 0.00 0.07 0.00 91 1013.9
20260904175525 59 315 1.0 4.0 0.00 0.07 0.00 91 1014.0
20260904175024 59 309 1.0 5.0 0.00 0.07 0.00 93 1014.0
20260904174551 59 296 2.0 5.0 0.00 0.07 0.00 94 1014.0
20260904174027 58 300 2.0 4.0 0.00 0.07 0.00 95 1014.0
20260904173523 58 307 1.0 3.0 0.00 0.07 0.00 95 1014.0
20260904173047 57 314 2.0 4.0 0.00 0.07 0.00 95 1014.0
20260904172525 57 299 1.0 4.0 0.00 0.07 0.00 96 1014.0
20260904172026 57 292 2.0 4.0 0.00 0.07 0.00 96 1014.0
20260904171559 57 338 1.0 3.0 0.00 0.07 0.00 97 1013.9
20260904171027 56 334 1.0 3.0 0.00 0.07 0.00 97 1013.9
20260904170527 56 300 1.0 3.0 0.00 0.07 0.00 98 1013.9
20260904170054 56 0 0.0 2.0 0.00 0.07 0.00 98 1013.9
20260904165528 56 37 0.0 1.0 0.00 0.07 0.00 98 1013.8
20260904165024 55 36 0.0 1.0 0.00 0.07 0.00 98 1013.9
20260904164557 55 0 0.0 2.0 0.00 0.07 0.00 98 1014.0
20260904164026 55 0 0.0 3.0 0.00 0.07 0.00 99 1013.8
20260904163531 55 329 1.0 3.0 0.00 0.07 0.00 98 1013.8
20260904163046 54 350 1.0 3.0 0.00 0.07 0.00 98 1013.8
20260904162527 54 12 1.0 3.0 0.00 0.07 0.00 98 1013.8
20260904162023 54 12 1.0 2.0 0.00 0.07 0.00 98 1013.8
20260904161551 53 17 1.0 3.0 0.00 0.07 0.00 98 1013.8